Location: Asheville, NC
(35.6000°N, 82.5500°W)
Time: 04:43:44

XW-2D - Pass Details

Date: 04 January 2018
Orbit: 511 x 530 km, 97.5° (Epoch: 23 March)

Event Time Altitude Azimuth Distance (km) Brightness Sun altitude
Rises 05:48:11 0° 27° (NNE) 2,660 ? -22.2°
Reaches altitude 10° 05:50:40 10° 43° (NE) 1,763 ? -21.7°
Maximum altitude 05:53:40 22° 96° (E) 1,173 ? -21.1°
Drops below altitude 10° 05:56:38 10° 148° (SSE) 1,743 ? -20.5°
Sets 05:59:03 0° 164° (SSE) 2,621 ? -20.0°
